Location: Foulognes
(49.1413°N, 0.8183°W)
Time: 18:31:45
(UTC+00:00)

STARLINK-55 - Pass Details

Date: 21 October 2019
Orbit: 548 x 551 km, 53.0° (Epoch: 17 November)

Event Time Altitude Azimuth Distance (km) Brightness Sun altitude
Rises 17:35:46 0° 268° (W) 2,715 9.6 -6.2°
Reaches altitude 10° 17:38:03 10° 273° (W) 1,822 7.9 -6.5°
Maximum altitude 17:42:06 52° 351° (N) 684 4.1 -7.2°
Drops below altitude 10° 17:46:10 10° 69° (ENE) 1,826 5.6 -7.8°
Enters shadow 17:46:16 - 69° (ENE) 1,869 5.7 -7.9°
